Time,TemperatureF,DewpointF,PressureIn,WindDirection,WindDirectionDegrees,WindSpeedMPH,WindSpeedGustMPH,Humidity,HourlyPrecipIn,Conditions,Clouds,dailyrainin,SolarRadiationWatts/m^2,SoftwareType,DateUTC
2013-05-06 00:02:00,71.0,58.0,-100.00,NNW,340,0.0,0.0,64,0.00,,,0.00,0.000000,,2013-05-06 04:02:00,
2013-05-06 00:12:00,71.0,58.0,-100.00,NNW,340,0.0,0.0,64,0.00,,,0.00,0.000000,,2013-05-06 04:12:00,
2013-05-06 00:23:00,71.0,58.0,-100.00,NNW,340,0.0,0.0,64,0.00,,,0.00,0.000000,,2013-05-06 04:23:00,
2013-05-06 00:32:00,71.0,58.0,-100.00,NNW,340,0.0,0.0,64,0.00,,,0.00,0.000000,,2013-05-06 04:32:00,
2013-05-06 01:02:00,71.0,59.0,-100.00,NNW,346,0.0,0.0,66,0.00,,,0.00,0.000000,,2013-05-06 05:02:00,
2013-05-06 01:12:00,71.0,59.0,-100.00,NNW,346,0.0,0.0,66,0.00,,,0.00,0.000000,,2013-05-06 05:12:00,
2013-05-06 01:22:00,71.0,59.0,-100.00,NNW,346,0.0,0.0,66,0.00,,,0.00,0.000000,,2013-05-06 05:22:00,
2013-05-06 01:32:00,71.0,59.0,-100.00,NNW,346,0.0,0.0,66,0.00,,,0.00,0.000000,,2013-05-06 05:32:00,
2013-05-06 02:02:00,71.0,60.0,-100.00,North,350,0.0,0.0,68,0.00,,,0.00,0.000000,,2013-05-06 06:02:00,
2013-05-06 02:12:00,71.0,60.0,-100.00,North,350,0.0,0.0,68,0.00,,,0.00,0.000000,,2013-05-06 06:12:00,
2013-05-06 02:22:00,71.0,60.0,-100.00,North,350,0.0,0.0,68,0.00,,,0.00,0.000000,,2013-05-06 06:22:00,
2013-05-06 02:32:00,71.0,60.0,-100.00,North,350,0.0,0.0,68,0.00,,,0.00,0.000000,,2013-05-06 06:32:00,
2013-05-06 03:01:00,71.0,60.0,-100.00,North,350,0.0,0.0,68,0.00,,,0.00,0.000000,,2013-05-06 07:01:00,
2013-05-06 03:11:00,71.0,60.0,-100.00,North,350,0.0,0.0,68,0.00,,,0.00,0.000000,,2013-05-06 07:11:00,
2013-05-06 03:22:00,71.0,60.0,-100.00,North,350,0.0,0.0,68,0.00,,,0.00,0.000000,,2013-05-06 07:22:00,
2013-05-06 03:32:00,71.0,60.0,-100.00,North,350,0.0,0.0,68,0.00,,,0.00,0.000000,,2013-05-06 07:32:00,
2013-05-06 04:02:00,71.0,60.0,-100.00,NNW,343,0.0,0.0,69,0.00,,,0.00,0.000000,,2013-05-06 08:02:00,
2013-05-06 04:12:00,71.0,60.0,-100.00,NNW,343,0.0,0.0,69,0.00,,,0.00,0.000000,,2013-05-06 08:12:00,
2013-05-06 04:22:00,71.0,60.0,-100.00,NNW,343,0.0,0.0,69,0.00,,,0.00,0.000000,,2013-05-06 08:22:00,
2013-05-06 04:32:00,71.0,60.0,-100.00,NNW,343,0.0,0.0,69,0.00,,,0.00,0.000000,,2013-05-06 08:32:00,
2013-05-06 05:02:00,70.0,59.0,-100.00,NNW,347,0.0,0.0,69,0.00,,,0.00,0.000000,,2013-05-06 09:02:00,
2013-05-06 05:11:00,70.0,59.0,-100.00,NNW,347,0.0,0.0,69,0.00,,,0.00,0.000000,,2013-05-06 09:11:00,
2013-05-06 05:22:00,70.0,59.0,-100.00,NNW,347,0.0,0.0,69,0.00,,,0.00,0.000000,,2013-05-06 09:22:00,
2013-05-06 05:33:00,70.0,59.0,-100.00,NNW,347,0.0,0.0,69,0.00,,,0.00,0.000000,,2013-05-06 09:33:00,
2013-05-06 06:03:00,70.0,58.0,-100.00,North,349,0.0,0.0,66,0.00,,,0.00,0.000000,,2013-05-06 10:03:00,
2013-05-06 06:12:00,70.0,58.0,-100.00,North,349,0.0,0.0,66,0.00,,,0.00,0.000000,,2013-05-06 10:12:00,
2013-05-06 06:22:00,70.0,58.0,-100.00,North,349,0.0,0.0,66,0.00,,,0.00,0.000000,,2013-05-06 10:22:00,
2013-05-06 06:33:00,70.0,58.0,-100.00,North,349,0.0,0.0,66,0.00,,,0.00,0.000000,,2013-05-06 10:33:00,
2013-05-06 07:02:00,68.0,57.0,-100.00,North,349,0.0,0.0,68,0.00,,,0.00,0.000000,,2013-05-06 11:02:00,
2013-05-06 07:12:00,68.0,57.0,-100.00,North,349,0.0,0.0,68,0.00,,,0.00,0.000000,,2013-05-06 11:12:00,
2013-05-06 07:22:00,68.0,57.0,-100.00,North,349,0.0,0.0,68,0.00,,,0.00,0.000000,,2013-05-06 11:22:00,
2013-05-06 07:32:00,68.0,57.0,-100.00,North,349,0.0,0.0,68,0.00,,,0.00,0.000000,,2013-05-06 11:32:00,
2013-05-06 08:02:00,71.0,57.0,-100.00,North,352,0.0,0.0,62,0.00,,,0.00,41.000000,,2013-05-06 12:02:00,
2013-05-06 08:12:00,71.0,57.0,-100.00,North,352,0.0,0.0,62,0.00,,,0.00,41.000000,,2013-05-06 12:12:00,
2013-05-06 08:22:00,71.0,57.0,-100.00,North,352,0.0,0.0,62,0.00,,,0.00,41.000000,,2013-05-06 12:22:00,
2013-05-06 08:32:00,71.0,57.0,-100.00,North,352,0.0,0.0,62,0.00,,,0.00,41.000000,,2013-05-06 12:32:00,
2013-05-06 09:01:00,77.0,59.0,-100.00,North,355,0.0,0.0,53,0.00,,,0.00,218.000000,,2013-05-06 13:01:00,
2013-05-06 09:11:00,77.0,59.0,-100.00,North,355,0.0,0.0,53,0.00,,,0.00,218.000000,,2013-05-06 13:11:00,
2013-05-06 09:21:00,77.0,59.0,-100.00,North,355,0.0,0.0,53,0.00,,,0.00,218.000000,,2013-05-06 13:21:00,
2013-05-06 09:32:00,77.0,59.0,-100.00,North,355,0.0,0.0,53,0.00,,,0.00,218.000000,,2013-05-06 13:32:00,
2013-05-06 10:02:00,78.0,60.0,-100.00,North,7,0.0,0.0,54,0.00,,,0.00,421.000000,,2013-05-06 14:02:00,
2013-05-06 10:11:00,78.0,60.0,-100.00,North,7,0.0,0.0,54,0.00,,,0.00,421.000000,,2013-05-06 14:11:00,
2013-05-06 10:21:00,78.0,60.0,-100.00,North,7,0.0,0.0,54,0.00,,,0.00,421.000000,,2013-05-06 14:21:00,
2013-05-06 10:32:00,78.0,60.0,-100.00,North,7,0.0,0.0,54,0.00,,,0.00,421.000000,,2013-05-06 14:32:00,
2013-05-06 11:01:00,80.0,60.0,-100.00,North,359,0.0,0.0,51,0.00,,,0.00,614.000000,,2013-05-06 15:01:00,
2013-05-06 11:11:00,80.0,60.0,-100.00,North,359,0.0,0.0,51,0.00,,,0.00,614.000000,,2013-05-06 15:11:00,
2013-05-06 11:21:00,80.0,60.0,-100.00,North,359,0.0,0.0,51,0.00,,,0.00,614.000000,,2013-05-06 15:21:00,
2013-05-06 11:33:00,80.0,60.0,-100.00,North,359,0.0,0.0,51,0.00,,,0.00,614.000000,,2013-05-06 15:33:00,
2013-05-06 12:03:00,80.0,60.0,-100.00,NW,326,0.0,0.0,50,0.00,,,0.00,769.000000,,2013-05-06 16:03:00,
2013-05-06 12:13:00,80.0,60.0,-100.00,NW,326,0.0,0.0,50,0.00,,,0.00,769.000000,,2013-05-06 16:13:00,
2013-05-06 12:23:00,80.0,60.0,-100.00,NW,326,0.0,0.0,50,0.00,,,0.00,769.000000,,2013-05-06 16:23:00,
2013-05-06 12:33:00,80.0,60.0,-100.00,NW,326,0.0,0.0,50,0.00,,,0.00,769.000000,,2013-05-06 16:33:00,
2013-05-06 13:03:00,80.0,59.0,-100.00,NNW,333,0.0,0.0,48,0.00,,,0.00,871.000000,,2013-05-06 17:03:00,
2013-05-06 13:12:00,80.0,59.0,-100.00,NNW,333,0.0,0.0,48,0.00,,,0.00,871.000000,,2013-05-06 17:12:00,
2013-05-06 13:23:00,80.0,59.0,-100.00,NNW,333,0.0,0.0,48,0.00,,,0.00,871.000000,,2013-05-06 17:23:00,
2013-05-06 13:32:00,80.0,59.0,-100.00,NNW,333,0.0,0.0,48,0.00,,,0.00,871.000000,,2013-05-06 17:32:00,
2013-05-06 14:02:00,81.0,62.0,-100.00,North,353,0.0,0.0,52,0.00,,,0.00,894.000000,,2013-05-06 18:02:00,
2013-05-06 14:12:00,81.0,62.0,-100.00,North,353,0.0,0.0,52,0.00,,,0.00,894.000000,,2013-05-06 18:12:00,
2013-05-06 14:22:00,81.0,62.0,-100.00,North,353,0.0,0.0,52,0.00,,,0.00,894.000000,,2013-05-06 18:22:00,
2013-05-06 14:32:00,81.0,62.0,-100.00,North,353,0.0,0.0,52,0.00,,,0.00,894.000000,,2013-05-06 18:32:00,
2013-05-06 15:01:00,78.0,62.0,-100.00,NW,322,0.0,0.0,58,0.00,,,0.00,524.000000,,2013-05-06 19:01:00,
2013-05-06 15:11:00,78.0,62.0,-100.00,NW,322,0.0,0.0,58,0.00,,,0.00,524.000000,,2013-05-06 19:11:00,
2013-05-06 15:22:00,78.0,62.0,-100.00,NW,322,0.0,0.0,58,0.00,,,0.00,524.000000,,2013-05-06 19:22:00,
2013-05-06 15:32:00,78.0,62.0,-100.00,NW,322,0.0,0.0,58,0.00,,,0.00,524.000000,,2013-05-06 19:32:00,
2013-05-06 16:02:00,81.0,62.0,-100.00,West,281,0.0,0.0,52,0.00,,,0.00,601.000000,,2013-05-06 20:02:00,
2013-05-06 16:11:00,81.0,62.0,-100.00,West,281,0.0,0.0,52,0.00,,,0.00,601.000000,,2013-05-06 20:11:00,
2013-05-06 16:21:00,81.0,62.0,-100.00,West,281,0.0,0.0,52,0.00,,,0.00,601.000000,,2013-05-06 20:21:00,
2013-05-06 16:32:00,81.0,62.0,-100.00,West,281,0.0,0.0,52,0.00,,,0.00,601.000000,,2013-05-06 20:32:00,
2013-05-06 17:01:00,82.0,61.0,-100.00,WNW,300,0.0,0.0,49,0.00,,,0.00,698.000000,,2013-05-06 21:01:00,
2013-05-06 17:11:00,82.0,61.0,-100.00,WNW,300,0.0,0.0,49,0.00,,,0.00,698.000000,,2013-05-06 21:11:00,
2013-05-06 17:21:00,82.0,61.0,-100.00,WNW,300,0.0,0.0,49,0.00,,,0.00,698.000000,,2013-05-06 21:21:00,
2013-05-06 17:33:00,82.0,61.0,-100.00,WNW,300,0.0,0.0,49,0.00,,,0.00,698.000000,,2013-05-06 21:33:00,
2013-05-06 18:03:00,82.0,57.0,-100.00,WNW,292,0.0,0.0,42,0.00,,,0.00,525.000000,,2013-05-06 22:03:00,
2013-05-06 18:12:00,82.0,57.0,-100.00,WNW,292,0.0,0.0,42,0.00,,,0.00,525.000000,,2013-05-06 22:12:00,
2013-05-06 18:22:00,82.0,57.0,-100.00,WNW,292,0.0,0.0,42,0.00,,,0.00,525.000000,,2013-05-06 22:22:00,
2013-05-06 18:33:00,82.0,57.0,-100.00,WNW,292,0.0,0.0,42,0.00,,,0.00,525.000000,,2013-05-06 22:33:00,
2013-05-06 19:03:00,80.0,61.0,-100.00,WNW,298,0.0,0.0,53,0.00,,,0.00,321.000000,,2013-05-06 23:03:00,
2013-05-06 19:12:00,80.0,61.0,-100.00,WNW,298,0.0,0.0,53,0.00,,,0.00,321.000000,,2013-05-06 23:12:00,
2013-05-06 19:22:00,80.0,61.0,-100.00,WNW,298,0.0,0.0,53,0.00,,,0.00,321.000000,,2013-05-06 23:22:00,
2013-05-06 19:32:00,80.0,61.0,-100.00,WNW,298,0.0,0.0,53,0.00,,,0.00,321.000000,,2013-05-06 23:32:00,
2013-05-06 20:01:00,76.0,61.0,-100.00,WNW,293,0.0,0.0,60,0.00,,,0.00,120.000000,,2013-05-07 00:01:00,
2013-05-06 20:12:00,76.0,61.0,-100.00,WNW,293,0.0,0.0,60,0.00,,,0.00,120.000000,,2013-05-07 00:12:00,
2013-05-06 20:22:00,76.0,61.0,-100.00,WNW,293,0.0,0.0,60,0.00,,,0.00,120.000000,,2013-05-07 00:22:00,
2013-05-06 20:32:00,76.0,61.0,-100.00,WNW,293,0.0,0.0,60,0.00,,,0.00,120.000000,,2013-05-07 00:32:00,
2013-05-06 21:01:00,72.0,62.0,-100.00,West,281,0.0,0.0,70,0.00,,,0.00,5.000000,,2013-05-07 01:01:00,
2013-05-06 21:11:00,72.0,62.0,-100.00,West,281,0.0,0.0,70,0.00,,,0.00,5.000000,,2013-05-07 01:11:00,
2013-05-06 21:21:00,72.0,62.0,-100.00,West,281,0.0,0.0,70,0.00,,,0.00,5.000000,,2013-05-07 01:21:00,
2013-05-06 21:32:00,72.0,62.0,-100.00,West,281,0.0,0.0,70,0.00,,,0.00,5.000000,,2013-05-07 01:32:00,
2013-05-06 22:02:00,69.0,63.0,-100.00,SSW,208,0.0,0.0,82,0.00,,,0.00,0.000000,,2013-05-07 02:02:00,
2013-05-06 22:11:00,69.0,63.0,-100.00,SSW,208,0.0,0.0,82,0.00,,,0.00,0.000000,,2013-05-07 02:11:00,
2013-05-06 22:22:00,69.0,63.0,-100.00,SSW,208,0.0,0.0,82,0.00,,,0.00,0.000000,,2013-05-07 02:22:00,
2013-05-06 22:32:00,69.0,63.0,-100.00,SSW,208,0.0,0.0,82,0.00,,,0.00,0.000000,,2013-05-07 02:32:00,
2013-05-06 23:02:00,66.0,62.0,-100.00,SSW,213,0.0,0.0,88,0.00,,,0.00,0.000000,,2013-05-07 03:02:00,
2013-05-06 23:12:00,66.0,62.0,-100.00,SSW,213,0.0,0.0,88,0.00,,,0.00,0.000000,,2013-05-07 03:12:00,
2013-05-06 23:22:00,66.0,62.0,-100.00,SSW,213,0.0,0.0,88,0.00,,,0.00,0.000000,,2013-05-07 03:22:00,
2013-05-06 23:32:00,66.0,62.0,-100.00,SSW,213,0.0,0.0,88,0.00,,,0.00,0.000000,,2013-05-07 03:32:00,